IW8PDD-3 Weather Reports


time (UTC)temp
C
wind
direction
speed
KPH
gust
KPH
rain 1hr
cm
rain 24hr
cm
rain mn
cm
humidity
%
barometer
mb
20260505151835 22 0.0 0.0 0.00 0.00 0.00 58 1016.7
20260505123807 23 0.0 0.0 0.00 0.00 0.00 57 1017.6
20260505121803 22 0.0 0.0 0.00 0.00 0.00 58 1017.5
20260505115800 23 0.0 0.0 0.00 0.00 0.00 57 1017.6
20260505113756 23 0.0 0.0 0.00 0.00 0.00 58 1017.8
20260505111753 22 0.0 0.0 0.00 0.00 0.00 59 1017.9
20260505101743 20 0.0 0.0 0.00 0.00 0.00 59 1018.0
20260505095739 21 0.0 0.0 0.00 0.00 0.00 58 1018.1
20260505093736 20 0.0 0.0 0.00 0.00 0.00 58 1018.1
20260505091732 20 0.0 0.0 0.00 0.00 0.00 57 1018.2
20260505085729 21 0.0 0.0 0.00 0.00 0.00 57 1018.1
20260505083725 20 0.0 0.0 0.00 0.00 0.00 58 1018.2
20260505081722 20 0.0 0.0 0.00 0.00 0.00 58 1018.3
20260505075718 20 0.0 0.0 0.00 0.00 0.00 58 1018.1
20260505073715 20 0.0 0.0 0.00 0.00 0.00 59 1018.0
20260505071711 20 0.0 0.0 0.00 0.00 0.00 61 1018.2
20260505065708 19 0.0 0.0 0.00 0.00 0.00 63 1018.1
20260505063704 18 0.0 0.0 0.00 0.00 0.00 63 1018.3
20260505061701 18 0.0 0.0 0.00 0.00 0.00 63 1018.3
20260505055658 18 0.0 0.0 0.00 0.00 0.00 63 1018.1
20260505053654 17 0.0 0.0 0.00 0.00 0.00 63 1017.8
20260505051651 17 0.0 0.0 0.00 0.00 0.00 62 1017.8
20260505021619 17 0.0 0.0 0.00 0.00 0.00 56 1017.4
20260505015616 17 0.0 0.0 0.00 0.00 0.00 57 1017.6
20260505011609 17 0.0 0.0 0.00 0.00 0.00 56 1017.7
20260505005606 17 0.0 0.0 0.00 0.00 0.00 55 1017.7
20260505003602 17 0.0 0.0 0.00 0.00 0.00 54 1017.8
20260505001559 17 0.0 0.0 0.00 0.00 0.00 54 1017.9
20260504235555 17 0.0 0.0 0.00 0.00 0.00 53 1018.2
20260504233552 18 0.0 0.0 0.00 0.00 0.00 52 1018.5
20260504231548 17 0.0 0.0 0.00 0.00 0.00 52 1018.6
20260504223541 18 0.0 0.0 0.00 0.00 0.00 51 1019.1
20260504221538 18 0.0 0.0 0.00 0.00 0.00 52 1018.8
20260504215534 18 0.0 0.0 0.00 0.00 0.00 52 1018.9
20260504213531 18 0.0 0.0 0.00 0.00 0.00 52 1019.2
20260504211527 18 0.0 0.0 0.00 0.00 0.00 53 1019.0
20260504205524 18 0.0 0.0 0.00 0.00 0.00 52 1019.1
20260504203521 18 0.0 0.0 0.00 0.00 0.00 52 1019.4
20260504201517 19 0.0 0.0 0.00 0.00 0.00 51 1019.3
20260504195514 19 0.0 0.0 0.00 0.00 0.00 50 1019.4
20260504193510 19 0.0 0.0 0.00 0.00 0.00 50 1019.2
20260504191507 20 0.0 0.0 0.00 0.00 0.00 49 1019.2
20260504185503 20 0.0 0.0 0.00 0.00 0.00 49 1019.0
20260504183500 20 0.0 0.0 0.00 0.00 0.00 50 1018.9
20260504181456 20 0.0 0.0 0.00 0.00 0.00 49 1018.8
20260504175453 20 0.0 0.0 0.00 0.00 0.00 47 1018.7
20260504171446 21 0.0 0.0 0.00 0.00 0.00 44 1018.4